Location: Haieshausen
(51.8387°N, 9.9720°E)
Time: 04:25:45
(UTC+00:00)

Cosmos 1833 Rocket - Pass Details

Date: 14 July 2020
Orbit: 832 x 840 km, 71.0° (Epoch: 10 August)

Event Time Altitude Azimuth Distance (km) Brightness Sun altitude
Exits shadow 00:45:00 14° 162° (SSE) 2,134 4.3 -14.5°
Maximum altitude 00:48:58 32° 106° (ESE) 1,387 3.9 -14.3°
Drops below altitude 10° 00:53:54 10° 45° (NE) 2,455 6.2 -14.1°
Sets 00:56:33 0° 36° (NE) 3,395 7.5 -13.9°
